📊 Raw Sensor Data
Showing records 42326 to 42350 of 84,999 total
| ID | Distance (ft) | Battery V | Battery A | Int Temp (°F) | Int Humid (%) | Ext Temp (°F) | Solar V | RSSI | SNR | Time Stamp |
|---|---|---|---|---|---|---|---|---|---|---|
| 42686 | 15.0 | 3.95 | -5 | 53 | 44 | 54 | 0.00 | -70 | 8 | 06/06/2025 01:00 AM |
| 42685 | 15.0 | 3.95 | -5 | 54 | 44 | 55 | 0.00 | -70 | 8 | 06/06/2025 12:45 AM |
| 42684 | 15.0 | 4.01 | -5 | 54 | 44 | 55 | 0.00 | -69 | 8 | 06/06/2025 12:30 AM |
| 42683 | 14.9 | 4.01 | -5 | 55 | 44 | 56 | 0.00 | -69 | 9 | 06/06/2025 12:15 AM |
| 42682 | 14.9 | 3.96 | -5 | 55 | 44 | 56 | 0.00 | -69 | 8 | 06/06/2025 12:00 AM |
| 42681 | 14.9 | 3.96 | -5 | 55 | 45 | 56 | 0.00 | -68 | 7 | 06/05/2025 11:45 PM |
| 42680 | 14.9 | 4.02 | -5 | 56 | 45 | 57 | 0.00 | -69 | 8 | 06/05/2025 11:30 PM |
| 42679 | 14.9 | 3.96 | -5 | 56 | 45 | 57 | 0.10 | -70 | 8 | 06/05/2025 11:15 PM |
| 42678 | 14.9 | 3.96 | -5 | 57 | 45 | 57 | 0.00 | -70 | 8 | 06/05/2025 11:00 PM |
| 42677 | 14.9 | 3.96 | -5 | 57 | 45 | 58 | 0.00 | -74 | 8 | 06/05/2025 10:45 PM |
| 42676 | 14.9 | 3.96 | -5 | 57 | 46 | 58 | 0.00 | -71 | 8 | 06/05/2025 10:30 PM |
| 42675 | 14.9 | 3.96 | -5 | 58 | 46 | 58 | 0.00 | -70 | 8 | 06/05/2025 10:15 PM |
| 42674 | 14.9 | 3.96 | -5 | 59 | 47 | 59 | 0.00 | -72 | 7 | 06/05/2025 10:00 PM |
| 42673 | 14.9 | 3.96 | -5 | 59 | 47 | 59 | 0.00 | -71 | 8 | 06/05/2025 09:45 PM |
| 42672 | 14.9 | 3.96 | -5 | 60 | 48 | 60 | 0.00 | -70 | 8 | 06/05/2025 09:30 PM |
| 42671 | 15.2 | 4.02 | -5 | 61 | 49 | 61 | 0.00 | -69 | 8 | 06/05/2025 09:15 PM |
| 42670 | 15.2 | 4.03 | -5 | 62 | 51 | 61 | 0.00 | -72 | 8 | 06/05/2025 09:00 PM |
| 42669 | 15.2 | 4.03 | -5 | 63 | 52 | 62 | 0.30 | -68 | 7 | 06/05/2025 08:45 PM |
| 42668 | 15.3 | 4.02 | -9 | 65 | 53 | 63 | 2.40 | -69 | 8 | 06/05/2025 08:30 PM |
| 42667 | 15.3 | 3.97 | -5 | 69 | 53 | 65 | 4.50 | -71 | 8 | 06/05/2025 08:15 PM |
| 42666 | 15.4 | 3.99 | 0 | 73 | 53 | 68 | 4.50 | -69 | 8 | 06/05/2025 08:00 PM |
| 42665 | 15.4 | 4.05 | 7 | 76 | 52 | 71 | 4.50 | -71 | 8 | 06/05/2025 07:45 PM |
| 42664 | 15.4 | 4.07 | -5 | 81 | 51 | 74 | 4.50 | -70 | 8 | 06/05/2025 07:15 PM |
| 42663 | 15.4 | 4.03 | 13 | 83 | 51 | 76 | 4.50 | -70 | 8 | 06/05/2025 07:00 PM |
| 42662 | 15.5 | 4.07 | 40 | 84 | 50 | 78 | 4.50 | -69 | 8 | 06/05/2025 06:45 PM |